OBJECT H, 61234

Orbit data source: Space-Track

You're viewing an Uncataloged Satellite

Recently launched and/or uncataloged satellites may have evolving metadata. Metadata may include but not limited to: Owner, Maufacturer, Bus, Motor, and Mission.

OBJECT H, 61234 is a Chinese satellite in SSO that was launched on Tue, 24 Sep 2024 UTC via a JIELONG-3 launch vehicle from the Yellow Sea Launch Area, China (YSLA). Unknown objects in Earth's orbit typically refer to objects detected orbiting the Earth but have not yet been identified or cataloged. These objects could be anything from previously untracked satellites, spent rocket stages, debris from satellite collisions, or even natural meteoroids temporarily captured by Earth's gravity.

Loading next visibility...
Identifier
61234, 2024-173H
Orbit
SSO
Last TLE update
2 days ago
Origin
Flag of CNTLCJ/ZZQY (CN / PRC)
Manufacturer
ZZQY
Mission
Operational Commercial Imaging
Bus & Motor
Unknown
Mass
~70 kg wet, ~70 kg dry
Launch date (UTC)
2024-09-24 (7 months ago)
Launch vehicle
JIELONG-3
Launch site
Yellow Sea Launch Area, China (YSLA)
Object type
Unknown
Shape & HBR
Box + 2 Pan, 0.5 m
Radar Cross Section
0.120 m², Medium (>0.1 m² and < 1m²)

Expand to show TLE details & history

TLE from 2 days ago
0 OBJECT H
1 61234U 24173H   25119.16807322  .00277355  00000-0  21865-2 0  9993
2 61234  97.3735 200.6707 0010152 213.8464 146.2151 15.70542348 33387
Epoch: 2025-04-29T04:02Z
Definitive object data (Epoch: 2025-04-29T04:02:01.526Z)
Latitude
-0.00007°
Longitude
-77.20727°
Altitude
366.192 km
Speed
7.686 km/s
True Right ascension
13h 22m 40s
True Declination
0° 00' 00"
Sunlit
Object was in full shadow at TLE epoch
Visualization TLE readout
Latitude
-55.11002°
Longitude
-64.63416°
Altitude
376.677 km
Speed
7.682 km/s
Apparent Right ascension
17h 22m 01s
Apparent Declination
-55° 23' 30"
Sunlit
Object is in full shadow
Visualization observer readout
Local Sidereal Time
07:43:58
Azimuth
135.415° SSE
Elevation
-61.985°
Doppler factor
1
Orbital elements
Apogee altitude
361.078 km
Perigee altitude
347.409 km
Semi-major axis
6,732.38 km
Eccentricity
0.0010152
Inclination
97.3735°
RAAN
200.6707°
Arg. of periapsis
213.8464°
True anomaly
146.27972°
Mean anomaly
146.2151°
Eccentric anomaly
146.24742°
Mean motion
3.92907 °/min
BSTAR
0.0021865
Orbital period
91.62 mins
Loading maneuver chart data...
Loading SW <> Apogee altitude chart data...
Loading historical data...
Loading historical data...
Loading historical data...
Loading historical data...
Loading historical data...
Loading historical data...
Loading historical data...

OBJECT H Visibility forecast

Observer location: undefined°, undefined°

Span
Click to sort rows by Start time (UTC) header in descending order
Start Az.
Max El. time (UTC)
Max El. Az.
Max El.
End time (UTC)
End Az.
4 mins2025-05-01 05:05:42.635Z133.596° SE2025-05-01 05:07:42.635Z61.964° ENE29.643°2025-05-01 05:09:42.635Z9.387° NNE
|